SL-16 DEB, 22348

Orbit data source: Space-Track

SL-16 DEB, 22348 is space debris in LEO originally from a launch on Fri, 25 Dec 1992 UTC launched from the Tyuratam Missile And Space Complex (TTMTR). Debris objects in space refer to the collection of defunct objects orbiting the Earth. Examples of debris include non-operational satellites, rocket bodies, and fragments generated from explosions, collisions, or faulty payload assembly.

Loading next visibility...
Identifier
22348, 1992-093AM
Orbit
LEO
Country
Flag of CISCIS
Related business
Manufacturer
Unknown
Mission
Spacecraft
Bus & Motor
Unknown
Mass
Unknown
Launch date (UTC)
1992-12-25 (33 years ago)
Launch vehicle
Unknown
Launch site
Tyuratam Missile And Space Complex (TTMTR)
Object type
Payload
Rocket body
Debris
Shape & HBR
Unknown shape, 0.1 m
Radar Cross Section
Small (<0.1 m²)

Expand to show TLE details & history
Last TLE update: 1 day ago

TLE from 1 day ago
0 SL-16 DEB
1 22348U 92093AM  25305.48069439  .00000506  00000-0  30230-3 0  9992
2 22348  71.2596 316.5473 0103739   8.6681 107.6409 14.09096858681307
Epoch: 2025-11-01T11:32Z
TLE epoch observation values (Epoch: 2025-11-01T11:32:11.995Z)
Latitude
57.2987°
Longitude
-109.22587°
Altitude
895.028 km
Speed
7.398 km/s
True Right ascension
06h 59m 20s
True Declination
57° 08' 42"
Sunlit
Object was in daylight at epoch
Visualization orbit readout
Latitude
Unknown
Longitude
Unknown
Altitude
Unknown
Speed
Unknown
Apparent Right ascension
Unknown
Apparent Declination
Unknown
Sunlit
N/A
Visualization observer readout
Local Sidereal Time
12:26:59
Azimuth
Unknown
Elevation
Unknown
Doppler factor
Unknown
Orbital elements
Apogee altitude
935.46 km
Perigee altitude
785.277 km
Semi-major axis
7,238.506 km
Eccentricity
0.01037
Inclination
71.2596°
RAAN
316.5473°
Arg. of periapsis
8.6681°
True anomaly
108.76925°
Mean anomaly
107.6409°
Eccentric anomaly
108.20553°
Mean motion
3.52427 °/min
Orbital period
102.15 mins
BSTAR
0.0003023
Loading maneuver chart data...
Computing Atmospheric mass density...
Loading historical data...
Loading historical data...
Loading historical data...
Loading historical data...
Loading historical data...
Loading historical data...
Loading historical data...

Documentation

Showing up to 5 results
|